Theta_e
312 312 312 312 313 312 312 312 311 309 309 306 303 306 301 300 297 308 312 312 306 298 293 296 294 291 293 297 296 297 295 294 295 293 295 292 294 293 292 291 290 292 290 290 290 291 287 290 290 292 294 295 297 299 300 301 298 299 297 301 304 313 301 298 299 303 306 309 311 311 311 310 307 307 307 305 301 302 299 297 300 296 298 294 296 296 300
312 312 312 313 312 312 311 312 311 311 309 307 306 302 300 300 301 303 310 310 306 296 288 289 290 291 295 295 293 296 295 294 293 292 293 292 292 291 290 291 294 290 293 292 289 292 285 292 292 291 295 292 299 299 299 300 297 297 297 296 303 296 302 300 295 297 298 302 309 306 309 309 305 304 305 306 305 305 304 304 305 297 297 298 294 289 296
312 312 312 312 312 312 311 312 311 311 311 310 306 299 301 301 303 302 304 308 304 293 295 292 291 291 291 291 290 292 293 296 295 294 292 295 294 292 291 293 292 292 294 291 292 293 291 288 294 294 293 293 299 299 299 300 297 300 304 310 307 298 296 298 292 290 289 290 292 295 299 302 305 306 305 306 305 304 302 297 299 290 300 300 295 296 303
312 312 312 312 312 312 312 312 311 311 311 310 306 303 301 296 289 297 298 301 300 299 300 297 293 291 291 290 291 292 291 295 297 296 294 295 295 294 294 294 293 291 291 289 289 290 294 291 290 292 291 293 296 298 299 298 297 304 309 306 302 298 301 300 299 297 297 302 304 307 307 304 301 303 304 304 306 306 304 301 299 293 298 298 298 302 302
312 312 312 312 312 311 312 311 311 311 311 311 306 304 302 299 292 291 290 297 297 295 297 295 295 291 294 288 291 289 291 292 294 298 290 295 294 293 294 293 290 289 289 289 288 290 290 293 292 291 291 294 295 299 298 298 301 307 303 304 299 300 297 300 303 304 304 305 308 308 308 303 303 303 303 304 304 304 302 299 297 304 299 290 301 306 304
312 312 312 312 312 311 311 311 311 311 310 311 308 299 301 290 295 296 298 291 288 291 291 295 293 295 295 290 293 290 290 291 289 294 296 295 296 290 292 293 292 291 290 290 287 289 289 290 288 292 293 292 294 294 298 296 301 303 297 300 297 295 294 300 301 301 304 306 307 308 308 306 304 304 304 303 304 303 301 302 305 307 299 295 304 306 307
311 312 312 312 312 312 311 311 311 311 309 309 305 297 300 298 297 296 299 291 293 293 294 295 295 293 294 292 292 290 290 289 292 291 291 293 292 294 286 289 291 292 292 290 287 289 285 285 291 290 290 291 291 290 293 297 299 298 295 296 298 296 295 299 301 301 303 306 306 308 307 306 306 305 304 304 304 303 303 304 305 308 306 309 311 309 310
311 312 312 312 312 312 312 311 311 311 309 309 303 301 295 294 293 292 297 295 293 294 295 295 294 291 295 289 291 291 290 289 291 293 291 288 290 295 290 290 292 292 292 291 288 290 291 290 287 292 291 291 292 290 291 293 297 296 294 294 296 294 292 299 298 299 303 305 306 306 307 309 307 306 306 306 304 304 304 304 305 308 307 309 313 312 307
312 312 312 312 312 312 312 311 311 310 309 304 301 300 301 301 302 301 294 288 291 295 295 293 292 290 292 290 291 292 291 290 293 291 295 292 290 292 289 292 292 292 292 292 291 293 293 293 293 294 293 288 293 291 292 296 291 293 293 294 294 295 291 296 297 295 303 304 304 304 306 305 304 304 305 307 304 301 303 302 304 305 305 307 309 305 304
311 312 312 312 312 312 311 311 312 310 309 305 303 298 304 303 306 305 298 287 293 291 294 293 292 288 292 292 292 291 291 294 294 289 294 296 295 294 294 293 292 291 291 290 292 295 295 295 295 296 296 296 295 296 295 295 292 291 292 295 292 293 292 291 293 292 296 305 304 303 303 302 299 301 304 306 308 306 305 305 307 307 309 306 303 305 309
311 312 312 312 312 312 312 312 312 311 310 304 302 300 302 300 298 299 298 287 291 292 292 291 290 293 294 295 293 294 294 294 294 288 288 294 294 297 296 294 291 289 290 293 298 298 298 298 298 298 296 296 295 295 295 295 296 295 293 293 293 294 293 291 294 289 293 298 302 303 298 292 294 309 311 313 306 305 307 303 305 307 310 306 311 312 315
311 311 312 312 312 312 312 312 313 312 309 309 308 303 304 306 303 299 293 285 288 293 291 288 290 292 292 294 294 293 292 292 293 295 291 293 294 296 296 294 294 287 296 300 300 299 299 299 298 298 297 296 295 295 295 294 295 298 298 294 292 292 293 291 293 290 291 296 301 296 291 292 309 311 313 311 310 308 306 310 312 307 308 313 313 313 313
312 312 312 312 313 313 313 313 313 312 311 310 308 302 307 310 302 297 294 289 285 289 287 289 293 293 294 294 293 294 295 295 296 296 295 294 293 295 296 294 293 296 300 298 299 297 293 291 292 293 294 296 296 296 295 294 294 296 297 297 294 291 291 292 291 293 295 296 297 289 291 305 313 309 310 312 310 309 309 310 314 316 316 317 312 312 315
312 312 312 313 313 313 313 313 313 313 312 311 307 306 308 307 300 298 295 288 287 291 292 291 292 292 293 293 293 294 295 294 295 296 294 296 294 294 297 298 299 301 301 300 296 296 291 291 287 289 289 293 292 291 293 295 295 295 295 296 297 295 294 293 289 296 289 291 293 295 306 303 307 306 305 303 303 306 307 303 308 315 318 319 318 316 314
312 312 312 313 313 313 313 313 313 313 312 311 309 308 307 307 305 301 300 294 286 290 292 286 290 292 292 293 294 292 292 292 292 292 296 297 295 297 297 300 301 302 302 297 293 294 290 289 284 283 286 286 282 285 293 290 295 296 296 296 297 296 292 296 290 290 293 289 291 296 295 293 297 302 307 311 311 311 313 313 307 316 319 323 321 316 315
312 312 312 313 313 313 313 313 313 313 313 311 310 308 308 309 308 305 301 295 290 283 289 293 294 293 292 293 294 292 291 290 291 292 292 293 294 297 300 301 302 302 300 296 295 292 290 286 283 283 282 284 289 287 287 291 290 295 296 296 295 296 296 296 292 289 291 292 290 291 292 298 300 301 307 311 314 314 317 312 305 314 318 322 322 321 322
312 312 312 313 313 313 313 313 313 313 312 311 308 308 306 312 307 304 300 298 294 287 296 297 297 296 293 292 294 293 294 291 293 288 287 289 292 296 298 300 302 300 298 294 294 290 287 286 287 286 287 289 286 286 290 289 288 291 294 294 294 293 292 294 290 291 292 291 290 291 294 293 300 304 308 312 314 314 310 298 300 313 317 322 322 321 321
312 312 313 313 313 313 313 313 313 313 312 312 310 307 307 312 311 307 302 298 293 292 297 298 295 292 291 292 291 295 297 296 294 294 292 293 293 294 295 297 295 299 300 292 292 288 287 286 283 283 282 291 291 292 284 289 287 289 289 291 290 291 292 291 288 290 290 292 291 296 298 302 303 305 310 310 315 311 301 294 306 314 318 320 321 321 322
312 312 312 313 313 313 313 313 313 313 313 312 311 309 308 311 311 308 303 299 296 290 298 301 301 297 299 300 297 297 297 296 296 290 289 289 293 298 297 297 298 291 296 292 291 287 286 286 292 288 285 287 291 285 290 287 287 292 292 289 290 292 293 293 293 288 287 289 289 289 298 301 305 308 310 311 310 299 298 310 318 316 318 320 320 319 321
312 312 312 313 313 313 313 313 313 313 313 312 310 305 308 312 312 309 303 297 299 296 299 300 300 297 301 297 295 294 295 296 298 293 291 287 296 297 293 289 296 296 293 294 288 291 286 284 287 290 286 286 289 292 288 291 294 291 292 294 291 291 288 287 288 291 293 292 288 287 285 299 305 306 308 308 302 305 313 314 314 315 315 318 318 319 320
312 312 312 313 313 313 313 313 313 313 313 313 311 307 305 312 312 312 310 304 299 294 296 303 303 300 300 299 300 299 297 294 295 293 295 295 298 295 285 285 290 292 289 290 284 286 288 286 288 288 292 289 290 291 286 287 291 296 294 293 293 296 291 289 290 295 287 288 286 289 302 301 306 305 299 304 306 316 315 316 310 313 313 314 315 316 319
312 312 312 313 313 313 313 313 313 313 313 313 311 309 304 309 313 312 311 308 300 297 299 303 305 303 304 305 304 304 302 301 301 302 298 294 298 297 295 296 294 294 295 295 291 290 293 291 292 289 287 289 296 288 290 286 285 291 296 294 287 295 296 294 288 296 293 292 295 299 303 303 307 307 307 308 309 310 315 314 312 310 311 314 313 313 315
312 312 312 312 313 313 313 313 313 313 313 313 312 308 304 308 310 314 310 302 305 305 306 304 305 305 306 307 308 308 307 307 305 304 303 297 294 297 296 295 295 300 298 299 293 292 291 292 288 292 289 291 289 288 290 290 287 291 289 296 295 299 299 301 298 296 303 302 300 303 306 304 304 305 311 311 309 311 314 313 311 312 311 313 312 313 314
312 312 312 313 313 313 313 313 313 312 312 312 312 308 307 309 311 310 307 304 301 297 300 303 299 297 299 300 305 308 308 307 307 306 307 305 294 294 299 301 301 301 300 302 304 295 294 294 293 294 287 292 294 288 285 285 289 292 291 291 295 298 299 297 292 296 292 289 304 303 300 302 304 305 307 309 315 311 313 311 312 312 312 314 313 313 314
312 312 312 313 313 313 313 313 313 312 312 312 312 313 312 309 311 310 303 296 297 295 290 295 298 303 306 308 307 305 306 308 309 307 306 305 302 296 294 299 302 297 296 300 303 299 299 292 292 292 286 293 294 287 294 289 288 295 288 290 292 293 301 294 296 295 293 293 298 300 303 304 305 304 306 305 309 312 314 312 312 316 318 313 312 313 313
312 312 312 312 313 313 313 312 312 312 312 311 311 309 308 308 314 313 309 306 304 300 292 291 296 306 307 305 303 305 308 308 307 306 305 305 305 304 301 302 302 308 302 303 301 297 295 294 294 293 290 290 298 290 290 293 292 295 291 289 295 296 300 290 295 292 295 298 300 302 303 304 306 307 306 308 309 309 310 311 312 311 311 312 312 313 313
312 312 312 312 312 312 312 312 312 311 311 311 311 310 310 311 314 310 306 305 299 293 295 291 297 302 306 303 306 307 308 307 306 305 304 304 304 304 303 304 301 302 300 299 301 299 298 295 294 291 294 293 297 294 295 293 293 291 291 295 299 296 291 296 294 290 289 291 295 299 293 293 298 301 305 305 306 309 308 309 310 310 310 312 311 311 312
312 312 312 312 312 312 312 312 311 311 310 311 311 311 313 311 313 313 313 310 302 294 295 295 296 300 305 302 306 307 307 307 305 304 303 303 303 303 302 301 302 299 298 297 294 295 293 291 291 296 297 297 293 291 296 296 296 292 292 294 298 294 296 296 292 291 290 297 299 301 300 299 301 302 305 306 308 308 306 308 309 309 310 311 313 310 309
312 312 312 312 312 311 311 311 311 311 311 310 312 312 312 315 316 315 314 314 312 303 300 299 301 300 294 298 307 305 306 306 305 304 303 303 303 303 302 302 300 300 299 298 298 296 294 294 298 294 294 298 295 291 293 288 288 286 292 298 300 300 301 298 298 298 298 300 300 301 300 299 301 304 304 305 307 306 306 307 309 310 310 310 310 312 310
311 311 311 311 311 311 311 311 312 312 311 311 312 310 305 306 314 315 314 314 312 308 298 295 289 297 305 304 303 305 305 306 305 304 303 302 302 302 302 302 301 302 301 298 297 292 295 295 296 298 300 303 295 293 289 290 288 291 297 299 301 300 300 300 301 298 296 301 302 302 302 302 303 304 305 306 307 308 306 306 307 309 309 311 309 310 313
311 311 311 311 311 311 311 311 312 311 310 312 311 305 302 298 306 315 313 314 313 307 301 300 295 301 301 305 305 304 305 305 304 303 303 303 302 302 304 305 304 302 298 299 298 297 297 294 295 296 300 300 297 292 290 289 287 290 295 298 299 298 298 299 300 300 300 300 301 301 301 301 303 303 304 305 306 307 307 307 309 314 312 312 311 312 314
311 311 311 311 310 310 311 311 312 311 313 312 309 305 305 306 311 313 314 314 313 306 300 294 295 296 297 302 306 308 306 306 306 306 306 305 303 304 305 304 302 305 302 299 299 297 296 298 296 296 295 300 298 292 292 290 288 289 296 297 298 298 299 298 298 299 300 301 300 298 298 299 301 300 300 304 306 307 306 306 307 307 312 311 310 311 312
311 310 310 310 310 311 311 312 311 310 312 310 309 309 308 308 308 312 314 314 310 305 305 298 291 296 295 297 305 306 309 308 306 305 303 308 302 306 302 305 304 303 305 300 295 292 299 297 298 294 298 302 295 293 290 289 291 296 298 298 297 297 297 298 299 299 299 299 299 295 294 297 300 303 304 305 306 306 307 307 307 307 306 306 306 307 309
310 310 309 310 311 311 311 311 310 310 309 310 309 307 310 309 312 309 315 314 307 307 304 297 293 293 294 304 298 304 308 302 301 303 299 305 307 304 300 302 302 297 300 296 298 297 298 297 294 294 297 295 298 291 286 291 296 295 295 296 296 296 297 297 297 297 298 299 300 300 300 301 303 304 304 304 304 306 308 308 308 306 306 305 305 306 308
310 309 310 310 311 312 311 311 313 311 310 312 311 311 312 308 310 312 313 310 300 299 299 299 298 290 293 296 295 299 308 304 299 304 299 303 308 301 301 296 299 292 295 304 296 295 292 293 297 291 288 295 290 286 288 290 292 292 292 293 295 295 295 294 296 298 299 300 301 301 302 302 301 301 302 303 303 305 305 305 306 306 305 305 305 306 307
310 310 311 312 311 313 315 312 312 312 313 312 309 312 314 315 315 316 315 312 307 300 298 295 298 293 294 289 291 300 308 303 304 304 303 305 303 307 304 299 291 296 301 298 291 295 291 299 295 287 293 287 286 288 289 291 289 290 291 291 294 295 296 298 299 301 302 303 302 303 303 303 302 302 303 303 304 304 305 304 305 306 305 305 305 306 307
310 311 310 309 312 314 312 314 318 315 311 311 311 315 314 314 314 314 313 309 310 307 301 298 292 295 296 295 299 305 306 296 303 301 303 300 297 303 301 297 292 297 297 295 295 292 297 303 293 287 286 285 288 293 294 294 293 292 293 297 299 300 301 301 303 304 305 304 304 304 303 303 303 303 303 304 304 305 304 304 304 305 304 304 306 307 306
310 310 314 313 313 312 314 314 314 312 316 314 313 311 308 309 304 305 305 304 306 306 303 301 295 301 304 300 294 304 304 300 305 299 299 304 299 298 302 298 296 298 287 290 295 302 298 296 291 287 287 294 296 297 297 299 300 300 300 300 300 300 301 302 303 303 303 304 304 304 305 304 303 304 303 303 304 304 305 306 306 307 307 308 307 308 308
310 314 313 316 315 311 312 314 314 315 311 312 313 310 306 306 305 302 303 304 303 300 304 301 300 303 302 300 301 309 304 301 300 301 295 301 300 294 301 292 298 299 289 290 295 304 290 291 292 289 286 293 294 296 300 300 302 302 302 302 302 301 302 301 303 302 301 302 304 308 307 305 304 304 305 305 306 306 306 307 307 308 308 308 308 309 309
319 315 317 317 313 315 314 315 316 313 312 309 310 308 304 306 302 296 308 298 298 306 305 299 306 305 304 301 300 300 309 304 297 296 299 299 307 296 298 298 297 294 285 285 290 302 289 285 289 287 287 292 294 299 300 301 301 302 302 302 303 302 302 301 302 303 304 304 307 308 310 311 309 308 307 307 307 306 306 307 308 308 308 308 311 309 308
324 321 320 316 318 318 313 313 314 314 312 309 308 308 306 296 308 308 305 299 299 301 310 306 307 305 307 307 305 301 308 310 309 308 304 297 304 304 297 289 299 290 286 286 296 299 294 289 287 286 287 294 297 299 300 301 301 302 303 303 303 303 302 301 301 302 302 302 303 305 307 309 311 312 311 310 309 308 307 308 308 309 309 309 310 310 311
320 317 317 318 320 322 315 313 313 312 313 315 303 293 298 303 308 305 305 295 297 305 305 307 301 302 303 307 306 309 308 313 310 308 302 295 302 299 294 296 298 287 284 293 299 295 291 285 285 286 292 297 299 300 300 300 301 301 301 303 303 303 302 301 300 301 302 302 302 303 304 306 307 310 312 313 310 309 308 308 309 310 310 310 311 311 311
309 308 312 317 319 317 318 306 313 312 293 292 292 290 298 292 297 298 298 307 310 305 306 314 310 314 312 313 308 311 308 312 306 304 302 297 304 304 295 290 290 284 289 301 295 288 286 285 285 288 295 297 298 299 300 301 302 302 303 303 303 303 302 301 300 300 301 301 301 302 303 304 305 307 310 312 314 313 313 312 312 311 312 312 312 312 313
319 320 318 321 314 316 312 291 309 305 293 294 292 288 295 294 297 301 297 299 304 304 308 303 305 307 301 309 306 306 309 308 310 305 302 304 301 293 292 286 287 297 300 293 288 285 286 288 290 293 296 298 299 299 299 301 302 302 302 303 304 304 303 301 301 300 300 301 301 301 302 303 304 305 306 308 311 313 313 314 315 316 315 315 315 316 320
318 315 309 304 296 303 296 287 303 295 290 294 296 296 297 294 297 299 298 309 307 304 308 308 308 306 303 307 309 308 306 303 309 300 296 302 297 297 293 289 297 297 290 285 287 288 288 287 294 296 296 297 298 299 300 300 301 302 302 302 303 302 302 301 300 299 299 299 300 300 300 301 302 302 303 305 307 308 307 307 310 314 316 317 317 316 317
316 301 298 293 289 292 294 291 292 291 303 303 299 300 299 300 301 301 305 307 305 306 308 310 309 310 306 308 304 301 307 306 301 300 302 300 294 289 296 300 299 289 288 287 285 284 286 290 294 295 297 298 299 300 300 300 300 302 303 300 301 302 302 301 300 299 299 300 300 300 300 300 300 301 301 302 304 305 306 307 308 308 309 309 309 310 311
309 315 301 296 292 295 309 292 295 302 302 305 302 302 302 303 305 305 305 306 305 306 307 315 310 310 304 305 306 304 306 306 299 302 302 294 292 297 301 294 286 287 284 284 284 286 288 293 296 297 299 299 299 300 300 299 299 300 302 303 302 302 302 302 301 300 300 301 300 300 300 300 300 300 301 301 302 303 305 305 306 307 307 306 307 308 309
296 308 303 291 289 296 294 301 309 305 303 303 303 303 303 305 303 302 305 306 306 307 306 307 305 310 307 313 309 298 302 303 299 298 301 297 299 294 288 289 287 289 289 286 286 292 293 296 297 298 300 300 300 299 299 299 299 299 300 302 303 303 303 302 301 301 301 300 300 300 300 300 300 300 300 300 301 301 302 303 304 304 305 305 306 306 306
317 298 294 294 302 300 300 303 302 299 301 303 304 303 302 303 301 303 305 306 306 306 307 306 304 304 298 302 300 299 296 301 292 290 300 295 290 285 285 282 284 284 291 292 292 294 295 297 301 301 300 300 300 300 300 299 299 299 299 300 302 303 303 303 303 303 302 302 301 300 300 301 301 301 300 300 299 300 301 301 301 302 303 304 304 304 304
300 298 308 297 302 301 302 304 301 298 301 302 302 301 302 302 301 304 306 305 306 307 307 309 308 299 299 299 292 296 293 300 297 294 294 290 291 291 288 284 286 286 290 295 296 296 298 299 300 299 300 300 301 300 300 299 301 301 300 301 301 303 304 303 303 303 304 303 302 301 301 301 300 300 300 299 300 301 301 301 301 301 301 302 303 302 303
312 299 300 307 301 300 302 296 296 296 298 299 300 300 301 301 301 302 307 306 306 304 302 298 299 297 292 292 290 287 290 303 296 292 291 290 293 292 287 286 289 293 296 299 298 300 300 300 299 299 299 300 300 301 301 300 300 299 300 301 301 301 303 304 303 303 303 303 304 303 302 301 302 302 302 303 302 301 301 302 302 301 301 301 301 301 301
298 295 302 305 306 305 305 305 304 301 302 303 302 303 305 302 304 306 310 306 304 299 296 301 298 293 290 288 292 297 301 296 291 293 290 293 296 291 290 292 294 296 297 297 298 300 301 301 302 301 301 300 301 301 302 301 301 300 299 300 301 300 300 302 303 302 302 302 303 303 303 304 304 304 304 303 302 301 300 300 302 302 302 301 301 302 302
Wind_Speed
22 22 22 21 19 19 19 21 21 20 19 13 12 11 8 8 9 16 18 15 16 9 6 5 5 5 7 10 10 11 12 9 8 10 10 10 7 8 7 12 13 8 11 12 10 10 10 12 9 14 11 14 11 16 24 22 26 18 10 20 9 18 4 4 10 8 12 8 15 18 16 16 15 13 11 9 14 14 5 5 4 8 4 7 2 2 5
21 22 21 20 18 18 18 19 20 21 19 10 10 8 7 8 10 12 12 17 15 9 7 7 6 4 7 7 8 10 12 11 11 7 10 7 8 9 9 10 7 13 12 11 11 12 8 4 13 9 11 13 18 24 19 22 16 15 11 10 15 10 4 5 4 3 6 9 2 15 16 12 11 11 13 11 7 17 7 3 3 5 8 6 3 2 4
21 22 20 18 17 17 16 18 18 18 19 15 8 7 7 8 8 7 10 12 9 8 9 11 11 9 11 9 9 9 8 9 12 12 12 9 5 8 8 10 12 10 11 11 9 9 7 7 6 9 10 11 18 18 18 24 17 15 20 27 17 10 10 4 2 5 8 8 7 13 17 17 10 9 14 16 11 17 13 8 3 5 5 9 4 2 2
20 21 19 18 17 16 16 16 16 17 17 16 9 7 6 7 8 6 7 9 12 5 12 11 12 12 12 15 10 8 9 9 9 10 10 7 7 8 9 9 10 11 12 11 11 11 6 5 7 9 9 12 10 14 23 20 19 24 30 27 14 7 6 5 5 2 4 4 4 4 12 12 11 12 13 15 18 10 13 6 4 8 5 7 5 3 3
20 20 19 18 16 16 15 15 16 16 17 16 7 7 5 6 6 10 11 9 5 11 10 13 13 11 15 10 9 10 9 9 9 10 9 6 10 8 8 9 11 10 12 12 11 8 9 8 10 9 12 10 13 22 19 20 19 25 22 27 15 3 6 6 6 8 10 15 11 6 22 18 17 14 14 16 20 17 8 13 7 6 8 7 4 7 5
21 20 20 18 16 15 14 14 15 15 15 17 7 5 5 3 4 6 7 6 9 10 7 12 14 16 16 10 12 11 11 10 8 8 6 9 6 7 4 7 9 11 14 14 10 10 11 8 7 11 7 12 14 16 19 16 15 18 17 20 11 9 5 7 10 11 13 11 14 12 8 6 17 17 13 17 20 21 16 8 8 8 6 9 5 9 6
21 21 20 19 16 15 14 14 14 15 16 14 5 5 3 5 5 5 9 6 7 10 14 15 13 15 14 10 13 12 9 9 9 9 8 8 7 5 8 9 11 13 12 10 7 7 8 7 9 6 8 10 12 9 18 18 11 15 16 17 12 10 3 14 14 12 12 10 12 10 8 5 6 13 18 11 18 21 20 7 9 8 6 7 10 10 8
21 21 21 19 16 15 13 13 12 13 14 12 7 4 6 4 5 4 5 6 10 11 9 10 11 10 12 8 10 11 12 11 11 9 10 9 9 8 10 12 11 12 12 8 8 7 7 8 9 9 10 9 3 7 5 12 18 15 15 14 16 13 9 21 15 9 5 7 12 15 10 1 0 1 3 3 8 19 18 14 9 8 6 4 10 6 6
21 21 20 20 17 14 13 12 11 12 8 7 4 6 4 5 2 3 6 8 5 6 7 8 8 8 9 7 10 12 15 14 14 15 11 11 10 8 12 11 11 11 11 10 9 7 8 8 10 11 10 7 6 6 5 9 16 20 15 11 16 13 10 13 9 7 5 5 10 13 9 5 5 4 2 1 5 10 17 15 7 5 7 5 8 13 6
22 21 20 20 16 14 13 12 11 10 7 6 4 6 4 5 3 3 2 5 5 6 7 8 7 5 5 7 10 10 16 16 15 12 5 6 9 11 10 9 9 8 9 11 9 9 12 12 11 9 9 8 9 11 13 12 11 12 14 15 13 11 11 11 12 9 4 0 8 9 8 9 7 5 2 3 2 6 11 11 11 5 7 8 6 9 8
22 20 20 19 18 17 15 13 12 10 6 6 4 6 5 3 4 3 1 5 3 5 5 5 6 6 9 11 13 13 15 14 11 9 7 12 11 9 10 10 8 5 8 11 12 11 13 12 14 10 11 12 12 12 14 16 13 13 13 12 12 14 10 8 7 4 7 10 7 6 6 3 4 1 1 0 4 8 2 14 14 4 4 4 7 5 6
22 21 21 19 19 17 17 15 13 10 7 7 6 6 6 4 3 3 3 4 6 4 3 6 7 10 13 15 13 14 15 16 16 14 14 11 17 14 10 9 7 6 6 11 13 12 13 12 14 12 14 16 17 17 18 17 15 14 12 13 14 15 12 7 4 3 6 10 8 2 3 4 1 2 1 6 9 6 12 25 15 7 5 7 19 11 7
21 21 21 20 19 18 16 16 13 11 10 8 7 8 3 2 3 2 3 6 6 5 7 8 8 12 14 15 15 14 15 15 16 14 12 10 14 12 8 7 7 11 12 11 14 12 11 11 11 12 14 12 12 15 18 18 16 17 14 14 12 10 9 7 5 5 6 2 2 2 5 5 1 3 12 15 6 6 4 15 20 19 18 17 9 16 10
21 21 20 20 20 19 18 16 13 12 12 9 7 6 5 4 5 3 2 2 6 4 6 10 10 12 11 12 12 14 14 14 14 14 11 6 11 11 9 6 8 11 16 10 9 4 6 5 7 7 8 7 7 8 12 15 15 17 18 15 14 14 6 4 6 3 4 5 6 8 4 4 4 8 14 14 8 13 6 8 8 18 20 19 13 3 14
22 21 21 21 20 19 18 17 15 12 13 10 6 6 6 5 5 3 3 4 8 6 4 6 6 10 13 13 11 9 9 11 12 9 13 11 7 9 11 11 8 10 14 8 4 2 4 5 5 7 7 5 1 5 7 7 10 18 18 16 15 11 7 3 4 3 4 5 6 1 2 3 8 11 16 21 17 15 5 14 15 21 23 19 18 5 8
22 21 21 20 20 19 18 17 15 12 12 11 7 7 7 6 7 5 4 4 2 6 5 13 13 9 9 9 10 11 9 8 7 9 9 7 10 11 9 10 9 10 8 6 3 3 2 4 5 5 5 7 8 6 3 4 6 13 17 16 15 12 11 5 3 4 6 3 2 2 2 2 4 19 19 23 18 18 3 12 10 14 18 19 17 19 14
22 21 21 20 20 19 18 17 16 12 12 10 6 6 6 4 5 5 3 3 4 9 4 9 8 8 8 10 9 6 3 5 6 5 6 7 11 11 12 12 9 10 9 6 3 3 3 3 4 4 5 9 8 8 9 7 8 9 8 14 13 10 6 3 3 3 3 3 2 2 4 3 16 20 18 21 18 16 5 7 6 13 16 17 17 18 19
21 21 21 21 20 19 19 17 17 15 12 10 7 6 5 3 6 5 4 5 5 6 5 11 11 8 7 7 9 8 7 5 5 3 3 8 8 7 11 11 10 9 11 6 4 2 4 3 4 3 4 5 10 8 4 8 6 1 6 1 1 3 4 4 4 2 4 6 2 2 1 4 16 18 20 23 16 5 10 6 4 11 9 14 14 17 15
22 21 21 21 20 19 18 17 16 16 15 12 8 6 6 6 6 7 4 4 4 5 3 5 8 10 9 8 9 8 7 8 5 6 5 6 1 9 14 6 7 5 7 5 4 2 4 3 2 2 2 7 7 6 9 6 7 7 6 3 1 1 0 2 1 2 2 2 5 3 1 1 17 16 17 20 7 9 5 2 5 8 9 12 13 15 16
22 22 21 21 20 19 18 18 17 16 15 13 7 6 5 3 6 8 7 6 3 7 5 7 7 14 9 10 9 8 7 6 2 5 3 5 7 12 8 2 1 6 4 6 4 3 4 5 4 2 3 3 3 5 6 6 9 6 4 7 2 5 1 2 1 2 1 2 3 3 4 8 18 19 12 20 12 4 2 4 6 11 11 13 13 13 14
22 22 21 21 20 19 18 18 16 15 14 13 8 6 5 4 6 8 9 7 3 5 5 6 8 9 9 12 13 14 12 11 8 6 4 5 4 5 5 3 8 5 4 4 4 5 4 5 4 2 2 3 4 4 8 8 6 12 12 4 5 8 5 6 6 7 3 4 4 1 3 7 10 13 8 8 8 3 3 3 7 10 10 10 10 13 13
22 22 21 20 20 18 18 17 16 14 11 12 8 4 5 3 4 5 8 8 6 7 4 5 7 9 10 11 11 9 9 11 12 8 6 8 4 3 4 5 3 1 1 2 3 3 3 3 3 3 5 5 2 4 7 7 6 8 8 7 3 7 1 4 1 2 2 2 2 2 6 7 4 6 4 6 12 11 6 7 7 7 8 9 9 11 12
22 22 21 20 19 19 17 16 14 12 9 9 7 3 4 2 2 2 5 6 4 4 5 7 7 9 10 12 12 10 10 9 10 10 7 6 7 4 4 4 1 4 2 1 1 2 5 7 6 5 6 3 7 7 6 3 3 7 8 7 3 3 5 2 2 1 1 4 8 5 0 7 7 8 3 4 5 9 7 7 6 7 7 7 8 9 10
22 21 21 20 19 18 17 15 14 11 10 9 6 5 4 3 2 2 3 4 3 3 5 7 3 4 4 7 6 9 11 10 10 8 6 4 4 5 3 1 3 3 1 2 2 4 5 3 4 3 5 6 7 5 7 6 2 6 8 7 6 5 8 7 3 5 6 2 4 6 10 10 6 4 8 7 2 4 4 6 4 5 7 6 8 8 8
22 21 21 20 19 18 17 16 14 12 10 9 7 6 5 4 4 5 4 3 2 2 3 3 6 9 10 9 4 3 5 4 4 8 8 7 6 6 7 6 7 5 6 5 3 5 2 4 5 2 5 4 7 6 7 7 5 7 7 6 6 4 7 6 5 6 4 3 9 10 8 5 6 3 5 3 4 5 3 3 3 2 4 8 9 8 8
21 21 21 20 19 18 17 16 13 9 7 7 6 4 4 4 2 5 4 2 1 1 2 4 4 5 4 3 4 6 5 5 6 7 8 8 7 7 6 4 4 2 3 3 4 3 4 4 3 3 4 3 5 3 5 4 8 6 5 6 4 7 6 3 4 6 4 6 5 4 10 4 3 7 3 8 8 4 7 9 5 6 6 7 8 7 7
21 21 21 20 20 20 18 15 12 9 6 4 4 4 5 4 3 6 4 3 2 1 2 3 4 6 6 9 7 4 4 3 4 5 5 5 5 4 4 3 3 3 4 5 3 3 2 3 4 5 5 4 5 5 5 5 5 5 5 7 8 6 5 7 5 6 4 3 7 14 10 8 13 12 9 11 11 8 7 4 5 5 5 4 4 6 5
20 21 21 21 20 20 18 16 14 10 6 6 5 5 5 4 3 6 5 3 3 3 4 5 5 6 8 11 7 5 1 3 2 3 3 3 4 5 4 4 3 4 4 5 5 4 4 6 7 6 4 3 6 5 6 7 6 4 4 3 5 7 10 9 8 7 9 13 15 12 10 10 8 12 12 10 8 8 10 6 4 5 4 4 4 4 5
22 22 21 20 20 19 18 15 12 9 7 4 5 4 4 2 2 4 5 3 1 3 4 5 6 5 3 6 5 1 5 1 2 3 1 5 5 3 4 4 4 6 5 4 4 3 4 5 4 5 4 5 5 7 7 7 5 5 4 7 9 7 9 10 10 13 12 10 13 14 12 11 11 13 15 14 8 8 9 6 4 4 5 5 4 3 5
23 23 21 19 17 16 14 12 9 7 5 2 4 3 1 2 2 2 3 3 2 0 3 3 2 3 5 4 3 4 1 2 2 2 4 4 1 2 3 3 3 4 2 3 3 4 5 5 5 6 7 7 5 5 6 6 8 7 9 9 10 12 14 13 10 9 12 15 14 14 15 18 16 11 11 12 11 7 7 7 4 3 3 3 4 4 3
22 22 20 17 14 13 11 9 7 3 0 3 4 3 2 1 2 1 4 3 2 1 2 1 4 4 3 2 5 6 7 5 3 3 4 4 2 1 1 2 2 3 3 3 2 3 3 3 5 5 6 7 5 4 6 8 9 9 7 10 13 15 15 15 15 13 13 14 15 17 18 18 16 13 13 10 9 8 9 7 5 5 4 4 3 1 1
19 18 15 14 12 10 9 7 6 6 3 4 1 1 1 1 2 3 3 3 2 2 2 3 3 1 1 1 2 5 6 7 6 5 3 4 4 4 4 3 2 3 3 2 2 1 2 3 3 5 5 4 5 4 5 6 9 10 10 13 13 14 14 15 15 17 16 14 14 18 19 19 14 10 11 10 12 11 11 12 10 6 6 4 3 3 2
17 15 13 12 10 8 7 4 4 3 2 5 8 9 8 7 5 3 4 2 1 2 1 2 1 2 1 2 2 5 4 3 4 2 1 2 2 1 2 3 3 4 5 2 2 2 2 3 2 4 3 3 3 3 4 5 7 9 12 15 16 15 16 18 18 18 17 15 10 13 17 17 14 11 11 12 13 12 11 10 9 8 8 7 6 4 3
15 13 11 10 9 6 4 1 2 4 4 2 2 4 3 2 3 3 2 2 2 1 1 2 3 3 2 3 1 1 3 2 1 1 2 3 2 2 2 3 3 2 4 2 1 1 2 2 3 5 4 2 2 4 4 5 9 14 17 16 18 18 17 18 18 17 16 15 14 16 20 19 16 14 15 16 15 13 13 12 11 9 7 7 6 4 2
13 11 9 8 6 3 1 3 1 3 3 4 3 3 4 1 3 4 1 1 2 2 2 1 0 1 3 2 1 1 3 1 2 2 3 2 2 2 1 2 2 2 2 1 2 2 3 1 3 3 3 4 3 1 3 8 16 16 17 15 18 18 20 18 15 12 14 15 15 16 17 16 16 16 16 17 16 14 13 14 14 12 11 9 8 7 4
12 9 7 5 5 3 2 3 3 4 3 1 4 4 8 6 4 2 1 1 2 2 1 1 2 2 2 2 4 2 0 2 1 1 1 2 2 1 2 2 2 1 1 1 1 1 1 2 1 2 3 2 2 2 7 12 16 18 17 18 20 16 18 22 25 24 21 19 18 17 18 17 17 18 15 14 15 15 15 14 14 12 11 10 7 6 5
9 6 2 2 2 2 4 4 4 1 2 6 9 9 7 3 1 1 2 1 1 0 2 2 1 2 3 1 2 0 1 1 2 1 1 1 2 1 1 0 3 1 2 1 1 1 0 2 1 1 1 3 8 10 13 15 16 16 14 13 13 16 17 17 18 18 17 15 17 15 15 17 18 15 13 14 14 14 14 16 13 11 12 11 8 7 6
6 5 3 2 2 3 3 2 3 8 15 16 13 5 2 1 1 2 1 3 0 1 1 1 0 0 2 1 2 0 1 1 4 2 1 1 2 1 1 1 1 1 1 2 1 2 1 1 2 1 3 4 6 8 12 15 12 6 7 12 15 17 19 17 17 14 14 9 9 12 13 15 16 14 15 15 14 15 15 14 12 12 10 10 9 7 6
8 4 2 2 2 3 2 2 8 14 7 3 3 2 2 2 2 1 1 2 1 2 2 2 1 3 2 0 2 1 1 2 1 0 1 1 2 1 2 0 1 1 0 1 0 2 1 1 1 1 3 6 8 12 12 11 13 10 9 11 14 17 18 18 19 18 16 12 12 9 10 12 15 16 14 14 12 12 12 13 12 11 10 8 6 5 5
2 3 3 4 2 2 4 7 13 7 3 2 2 2 1 3 1 1 2 1 1 1 1 1 0 2 2 2 2 1 1 1 2 2 1 2 1 1 1 1 1 1 1 2 1 2 2 3 2 2 7 8 8 10 10 13 14 13 13 14 15 17 19 20 19 18 18 17 13 13 13 8 12 10 11 12 12 11 12 12 10 9 8 8 7 6 6
2 3 3 2 3 3 5 6 3 3 3 3 3 3 0 0 1 1 2 3 1 1 1 2 1 1 2 1 2 3 0 1 1 1 1 1 1 0 1 0 2 1 1 1 0 2 1 1 2 5 7 7 8 8 10 12 14 14 14 14 16 16 19 21 22 22 22 19 18 17 16 16 6 8 9 10 10 11 10 9 9 9 8 8 8 8 6
2 2 3 3 3 3 4 4 3 3 4 3 1 1 1 0 2 2 1 1 2 2 3 2 3 1 1 1 3 1 1 1 0 1 1 1 3 2 1 2 1 0 1 2 1 1 1 1 2 4 8 8 8 8 10 11 14 16 17 17 16 17 20 21 22 23 22 21 18 17 17 17 13 10 6 4 4 6 8 8 7 7 9 7 7 7 7
6 2 2 3 3 4 2 2 4 4 0 1 1 1 2 1 2 3 3 2 1 0 1 2 2 2 1 1 1 1 1 1 1 2 2 1 1 1 1 0 0 1 1 1 1 0 2 3 3 5 8 9 10 10 9 9 11 12 14 15 16 15 16 18 19 19 21 22 21 19 18 19 17 13 11 7 4 3 3 7 8 7 5 6 7 8 6
3 3 2 3 2 2 2 1 2 1 2 1 2 4 6 5 4 3 3 1 0 2 1 4 1 2 2 3 1 1 1 2 1 1 4 2 2 0 1 1 1 1 2 1 0 2 2 1 5 7 8 8 8 9 10 9 10 11 13 14 14 15 16 17 19 21 23 22 23 21 21 20 19 17 17 15 11 4 2 3 2 2 2 2 4 6 7
2 2 1 1 1 1 1 2 2 0 2 3 2 4 5 7 5 5 5 1 2 5 3 3 3 1 3 3 3 3 2 2 3 2 1 0 1 2 1 2 1 1 1 1 1 0 0 2 5 6 9 10 9 9 10 10 9 11 12 13 16 17 16 18 19 18 18 20 21 22 21 21 20 19 19 18 13 13 13 12 8 1 2 4 5 6 6
2 2 1 1 3 3 0 1 1 1 2 2 4 4 4 3 3 4 4 4 4 4 3 4 4 1 2 5 4 3 3 3 2 2 1 0 1 3 2 3 0 2 1 1 2 3 2 4 6 6 8 9 9 8 9 9 10 9 11 14 14 16 16 15 15 16 17 17 18 19 21 22 20 19 19 19 18 18 18 17 16 15 16 16 13 13 12
2 1 1 0 0 2 1 1 3 2 3 2 4 5 7 6 5 5 5 6 6 6 7 1 3 1 2 1 2 3 3 2 1 1 2 1 2 2 1 2 1 1 2 3 2 1 2 4 5 6 7 8 10 9 8 9 10 10 10 10 13 13 14 14 14 15 15 15 16 18 18 19 20 20 20 20 19 20 20 19 20 20 18 14 13 14 18
1 1 0 1 1 1 4 4 2 3 6 6 8 7 7 4 5 6 7 7 7 7 7 5 3 1 1 3 1 2 2 2 1 2 2 2 1 2 0 3 2 2 2 1 3 3 2 3 5 6 6 8 9 10 9 9 10 11 10 10 10 12 13 14 13 13 14 14 14 13 14 16 18 20 19 18 20 22 20 19 19 19 16 15 16 15 17
1 1 1 1 2 4 5 7 7 5 6 6 6 6 6 5 6 6 7 7 8 7 7 3 4 3 4 4 2 2 3 3 1 1 2 3 2 2 1 1 1 1 1 0 3 3 4 5 4 4 7 8 8 9 8 8 9 9 9 9 8 8 10 11 12 12 11 11 12 13 14 14 14 15 17 18 20 19 17 18 19 18 16 15 16 16 17
1 0 1 1 3 4 5 3 5 6 5 5 6 6 7 6 7 7 7 8 7 7 5 3 3 3 3 3 2 2 2 2 3 1 3 6 4 3 1 1 1 2 3 1 3 3 3 4 4 6 6 7 9 9 8 8 9 10 7 7 7 6 7 9 10 11 11 11 11 12 13 12 13 13 14 15 15 14 16 17 18 18 17 15 14 16 18
1 1 2 2 3 3 3 6 7 7 7 7 6 6 6 6 7 7 7 6 7 6 5 5 4 2 1 1 1 1 2 0 3 6 4 4 4 3 2 2 4 4 3 3 4 4 3 4 5 5 6 7 7 9 7 7 8 9 8 6 7 8 5 6 8 9 10 10 10 11 12 11 10 11 11 10 10 12 13 15 15 14 14 15 17 18 19
1 2 2 1 4 2 2 2 2 3 3 5 4 5 5 7 5 4 5 5 6 6 8 4 3 3 1 3 3 3 2 2 4 5 5 4 2 3 3 5 5 3 5 5 5 6 5 4 4 4 4 6 8 8 7 7 7 8 9 7 5 7 8 5 5 7 8 8 9 9 9 10 10 9 10 11 10 12 12 11 11 12 12 12 13 15 16
Wind_Direction
332 334 335 336 338 340 341 343 341 345 351 355 345 320 314 340 296 286 294 313 2 357 293 312 357 341 323 327 316 341 309 332 321 329 349 325 355 341 339 338 318 315 326 318 318 315 320 316 347 324 320 310 317 321 328 346 337 331 318 333 341 337 225 257 249 261 284 233 179 171 181 185 203 213 220 192 186 191 188 167 183 184 217 234 258 297 261
330 332 333 334 337 339 340 341 342 341 354 353 331 326 329 314 306 317 333 353 350 331 324 345 307 317 291 298 328 318 321 318 330 340 331 324 351 333 324 307 322 316 312 304 311 343 327 16 342 307 331 305 320 319 331 343 327 332 338 338 326 311 329 332 257 236 239 259 233 173 177 192 207 199 209 219 184 181 196 192 150 179 206 207 188 235 272
328 329 330 333 335 337 339 339 338 341 342 348 340 326 313 284 269 288 338 341 347 321 354 335 327 318 325 332 339 333 322 337 320 331 318 339 347 334 324 322 303 305 312 314 334 356 9 309 289 325 317 306 319 312 337 326 312 315 314 316 301 257 267 303 255 210 198 205 191 186 179 191 191 205 196 215 223 178 181 211 185 191 219 201 219 244 264
326 327 327 329 333 335 338 336 336 336 337 342 343 321 303 342 320 339 329 349 326 345 354 351 356 339 340 330 314 339 322 313 320 321 315 346 335 329 312 307 328 313 336 330 344 333 2 318 306 324 318 326 317 318 318 310 315 315 326 319 316 269 273 249 245 231 299 282 224 224 164 170 202 193 200 196 226 203 179 167 156 186 208 188 219 171 245
324 324 325 327 331 335 335 336 335 333 332 337 332 297 255 304 323 346 335 338 334 348 346 352 350 332 325 304 325 323 321 313 313 10 318 359 324 317 310 329 321 334 328 333 331 339 316 308 299 308 323 320 308 313 309 309 315 323 329 324 317 261 264 263 256 245 242 268 284 270 170 171 188 201 199 194 203 225 192 177 215 169 117 206 229 170 150
322 322 323 327 330 332 334 335 334 330 327 330 324 301 309 320 349 335 20 326 315 333 337 339 320 312 310 302 315 307 318 340 321 312 317 317 305 307 291 307 319 328 335 331 329 332 313 313 307 317 325 330 329 327 320 320 318 338 322 324 324 332 290 305 309 304 299 291 280 298 320 192 180 201 213 195 190 215 220 184 188 146 146 192 207 163 148
320 320 322 326 328 328 332 333 329 329 323 326 303 300 316 304 333 304 17 338 323 309 303 305 302 309 313 319 305 307 339 320 313 321 320 311 318 326 305 318 327 330 336 326 322 339 321 316 318 310 321 331 329 326 330 318 343 341 323 327 317 321 282 340 320 303 294 310 283 276 263 47 7 201 207 215 188 201 218 204 190 167 168 183 168 163 176
319 321 324 324 325 327 326 325 325 322 326 320 303 293 320 346 339 316 9 309 299 294 299 308 315 311 317 304 315 331 325 317 326 321 323 319 311 333 313 318 329 327 316 319 314 322 298 308 293 300 313 307 309 309 274 301 320 337 325 324 316 327 337 337 331 305 308 302 315 308 274 9 152 4 226 269 213 192 214 214 208 189 171 176 149 92 51
320 322 322 323 325 323 320 319 320 316 332 325 323 313 288 316 6 349 333 317 292 304 317 311 313 307 307 315 331 332 328 326 330 314 324 317 321 327 309 306 302 308 311 308 309 319 289 270 266 282 289 278 293 313 298 323 310 318 322 326 317 323 328 328 333 340 304 12 289 289 321 315 275 231 309 309 347 205 194 212 212 177 178 168 119 104 148
321 322 322 324 324 322 317 316 315 309 314 297 295 282 325 329 360 29 20 290 291 304 283 295 306 278 296 316 322 322 317 310 322 317 316 310 301 296 293 299 301 300 314 308 311 314 297 292 282 264 254 256 269 261 267 267 280 296 299 308 308 318 327 338 347 344 328 253 261 286 300 295 294 284 225 11 293 291 191 213 211 203 154 137 161 150 191
321 320 323 322 323 321 319 315 312 308 308 300 293 288 305 299 311 333 245 282 282 251 289 285 282 282 301 305 310 314 310 319 329 303 309 312 307 324 334 300 293 301 296 298 300 302 293 291 299 288 278 270 260 255 259 263 266 270 284 302 297 310 320 319 348 310 305 318 311 309 10 278 223 127 30 90 38 19 46 190 212 221 153 175 136 148 161
319 319 320 321 320 318 316 313 308 299 282 280 276 277 267 273 273 230 286 269 280 288 276 272 290 294 296 299 302 303 310 318 315 314 308 325 317 318 313 308 323 296 295 285 295 307 307 300 284 274 263 253 247 251 255 259 258 259 265 272 290 303 311 313 311 287 301 323 343 36 256 254 221 110 346 12 17 13 84 40 12 337 344 118 120 114 96
319 319 319 318 317 314 312 311 307 302 296 288 281 270 273 189 244 243 244 264 267 287 290 288 287 292 293 294 294 295 305 311 312 319 312 334 310 322 329 341 317 285 299 314 315 326 323 312 310 304 294 279 267 254 249 243 247 260 262 265 275 289 306 316 309 297 286 352 103 187 237 268 256 82 41 1 341 284 75 37 24 10 6 349 120 124 124
318 317 317 317 315 314 314 312 307 302 298 290 285 267 265 227 236 221 211 261 277 245 285 293 285 280 285 296 303 305 309 314 323 327 318 294 286 305 321 327 319 326 322 306 308 350 301 315 320 312 299 271 246 247 243 240 234 246 253 260 266 272 298 301 321 317 348 338 279 222 351 307 27 41 18 340 317 317 90 101 40 14 5 6 333 112 108
316 316 317 316 314 313 312 309 306 300 296 290 278 270 254 233 207 223 174 190 260 280 262 274 283 287 300 301 309 311 313 320 322 318 306 312 320 333 341 346 341 329 299 329 320 312 310 321 323 322 312 316 301 279 221 238 219 225 237 244 251 257 275 312 339 307 18 318 326 293 237 275 348 334 340 338 313 313 132 84 41 3 6 5 356 8 70
316 317 317 315 314 313 313 312 308 302 295 294 288 271 260 238 230 212 201 192 204 285 213 226 246 280 288 298 305 306 314 316 318 304 316 337 324 329 343 331 324 296 302 323 304 302 339 315 326 313 313 317 306 314 331 265 228 203 215 219 234 247 244 254 276 293 319 329 358 320 314 106 24 345 334 326 315 311 91 73 43 355 354 2 9 14 26
319 318 317 315 315 314 313 313 311 305 301 296 281 278 271 212 218 215 210 198 184 231 312 324 323 308 306 295 293 291 271 279 304 337 325 330 315 329 327 325 322 331 347 324 344 335 298 310 332 300 309 308 321 340 325 352 351 343 210 198 217 234 253 271 271 285 246 297 337 340 46 5 345 339 335 323 308 301 69 65 32 340 343 7 10 25 31
317 317 316 315 315 314 313 313 311 309 303 294 290 281 274 207 215 211 217 224 229 276 219 245 254 261 254 261 271 287 303 300 315 296 278 295 312 327 329 327 337 355 0 345 353 352 298 26 344 337 311 312 310 303 24 327 344 43 339 299 146 228 278 188 250 270 323 326 293 333 49 343 352 342 343 336 304 347 61 81 334 303 339 16 12 24 21
317 317 315 314 314 314 314 313 311 309 306 302 299 289 251 225 202 197 227 220 204 249 163 206 214 240 257 277 269 279 271 294 302 297 325 309 193 315 312 351 339 340 348 4 5 293 334 69 237 336 312 327 344 347 325 325 345 340 351 4 23 298 85 302 5 311 292 313 32 308 130 12 347 339 4 347 16 46 54 127 257 274 11 23 21 21 19
317 316 314 313 313 314 314 313 312 309 307 301 297 280 271 228 194 197 209 239 213 257 263 255 250 264 262 261 268 264 279 277 240 271 297 294 321 333 325 60 268 341 338 5 339 21 352 19 358 330 324 310 324 313 305 320 313 341 6 353 26 1 324 292 292 297 331 64 347 24 4 337 345 341 20 18 55 353 260 293 345 13 21 23 22 18 21
316 315 314 314 314 315 315 313 312 309 306 302 299 289 284 209 211 206 209 222 237 277 275 231 240 255 260 263 264 271 273 273 287 294 319 290 301 330 341 341 353 352 356 341 330 352 16 347 10 1 267 261 291 331 345 327 310 20 356 353 53 11 22 2 360 23 327 33 54 127 324 306 335 23 35 349 38 210 73 34 14 10 14 21 15 12 16
316 316 316 315 316 316 315 314 313 312 308 304 307 284 272 224 214 208 213 213 229 231 258 320 321 289 268 249 251 252 262 266 262 266 290 299 311 312 268 297 350 119 245 292 356 301 38 339 307 343 326 309 293 320 316 341 3 332 350 360 27 346 32 161 294 335 81 339 277 283 269 268 313 65 58 7 359 3 68 57 37 15 4 6 21 9 7
317 317 316 317 317 318 316 316 317 315 312 303 305 251 266 285 236 210 200 223 228 263 286 282 269 275 275 271 264 258 251 239 252 264 261 278 291 288 312 305 249 191 202 164 187 294 315 322 325 325 311 326 348 319 332 63 332 354 345 357 332 333 6 332 241 296 346 249 238 238 236 342 5 358 73 81 22 346 20 51 46 23 7 0 24 1 11
318 317 318 318 319 319 319 318 318 315 310 304 293 274 273 240 215 160 195 222 241 290 274 227 245 262 256 274 256 223 228 236 241 250 252 233 261 292 247 225 9 305 275 216 211 311 327 304 305 310 310 338 338 324 339 358 360 350 346 340 345 338 29 356 334 324 24 327 20 6 354 327 336 352 11 347 28 54 354 41 44 48 6 6 21 6 13
318 318 319 319 319 319 319 318 317 317 311 306 297 264 254 257 212 189 205 217 200 192 275 305 233 239 249 260 275 271 245 256 212 211 223 204 219 264 288 319 327 327 321 322 318 318 320 313 325 338 331 343 15 337 347 336 337 0 328 323 330 319 18 339 338 337 340 312 332 324 306 299 295 334 351 289 15 44 47 49 31 64 56 25 8 359 17
318 319 320 320 320 319 319 319 319 315 306 284 277 261 239 252 181 175 202 270 344 200 294 298 320 330 324 286 243 240 252 235 234 239 227 227 224 221 249 278 295 302 287 300 327 325 312 294 287 312 344 323 28 324 310 319 295 313 297 303 291 305 340 290 319 298 307 299 271 305 324 286 335 349 360 12 7 9 18 2 10 37 36 43 3 355 11
319 319 319 319 320 320 320 321 318 314 297 270 267 247 244 248 183 172 188 191 207 216 194 266 287 297 320 314 329 293 236 238 255 262 255 222 232 258 283 299 298 315 319 320 321 301 279 290 300 333 344 344 339 284 289 299 323 319 311 302 309 307 335 325 330 326 309 326 355 15 353 334 322 317 357 352 348 354 353 341 5 22 18 63 30 346 1
318 318 319 322 322 321 321 319 320 316 294 266 240 235 236 234 201 207 232 233 245 311 331 310 301 310 315 279 258 250 309 206 202 260 266 261 290 309 307 304 306 300 327 333 327 343 343 332 342 339 333 351 336 318 326 305 281 265 260 300 3 14 11 2 8 343 312 324 336 345 330 310 303 325 331 341 341 349 341 345 5 352 349 24 61 354 335
318 319 321 321 321 321 319 319 323 322 306 268 227 225 226 221 139 207 223 227 291 289 282 277 275 267 338 11 325 90 118 200 194 229 284 332 306 299 294 325 339 348 332 332 339 316 322 331 329 327 19 357 313 315 339 320 326 303 325 355 27 2 0 354 338 324 305 321 329 326 317 304 307 316 318 312 312 314 310 316 343 351 347 343 348 10 330
319 320 320 320 319 318 321 325 332 341 343 303 248 218 172 122 134 193 206 186 185 307 295 332 344 15 351 285 32 33 59 145 208 221 201 204 267 346 357 3 350 2 8 330 359 319 352 329 329 330 5 26 358 325 300 322 310 305 325 333 2 343 341 333 336 327 304 315 313 312 306 299 297 303 304 300 295 295 290 289 294 302 297 305 305 296 272
316 318 318 318 316 318 320 329 333 338 241 242 235 257 259 243 76 91 121 127 179 242 278 259 283 331 287 83 24 29 19 8 343 334 350 359 12 18 1 46 351 357 356 7 22 1 344 317 325 330 346 26 10 315 318 311 296 296 306 341 339 331 324 314 313 307 305 303 306 303 298 288 292 300 289 281 286 287 284 281 272 265 272 281 266 222 240
312 313 316 314 313 314 319 323 340 336 256 255 336 8 79 61 99 115 121 137 143 218 272 314 286 180 346 76 31 23 35 41 32 31 44 13 43 26 43 42 85 47 39 28 32 344 350 344 336 332 318 355 354 288 285 281 284 286 320 321 318 310 305 302 301 301 297 295 300 299 289 282 278 268 277 288 289 289 288 288 292 286 290 278 255 232 216
311 311 310 312 309 310 311 309 354 8 345 80 90 89 71 81 77 107 128 116 169 274 280 265 294 297 299 46 47 21 15 27 44 21 80 64 53 2 66 42 40 61 35 13 39 332 343 339 297 297 354 327 300 305 287 264 264 294 310 307 306 303 300 294 289 285 283 280 266 257 266 270 279 281 281 285 287 292 295 287 281 280 274 269 269 273 249
307 307 308 302 302 304 294 328 323 52 80 125 188 115 126 143 142 57 108 206 269 285 317 267 345 9 353 162 25 357 310 32 26 15 47 50 21 61 58 70 27 56 8 24 11 342 332 325 340 322 323 348 2 307 287 281 308 312 310 307 304 301 295 291 287 278 271 265 253 247 255 263 268 270 272 272 273 276 282 287 287 284 281 276 267 252 235
303 299 299 297 294 303 241 194 153 233 252 240 92 113 131 64 115 135 94 18 252 195 197 88 298 323 350 33 120 45 351 5 29 6 34 56 11 79 83 66 20 49 326 130 18 14 331 318 323 341 350 329 335 316 280 304 310 309 306 301 298 299 296 290 277 255 255 255 251 249 250 250 253 254 248 252 257 260 265 272 281 288 288 284 287 292 297
299 293 287 279 273 220 229 190 216 244 230 167 100 106 111 126 128 122 63 159 305 324 8 45 286 20 339 12 10 59 41 59 128 96 68 138 91 37 77 127 94 50 255 66 26 288 268 264 358 334 344 328 296 252 271 285 286 289 292 292 295 298 294 292 292 288 280 265 252 251 250 248 245 245 244 244 245 245 241 251 259 263 274 284 285 298 305
281 268 226 157 199 233 230 232 160 218 34 100 118 124 131 177 105 67 205 242 163 71 302 291 329 38 339 344 243 51 230 86 171 168 155 69 80 149 138 124 67 196 154 233 180 255 285 126 90 282 312 307 309 298 288 278 270 273 287 296 315 317 312 308 302 296 298 267 246 240 237 238 241 242 242 237 235 236 235 232 236 242 248 256 267 264 264
246 232 193 169 211 251 232 150 103 118 108 115 129 126 139 205 242 157 174 228 63 283 203 218 301 270 231 248 52 96 252 167 169 147 127 144 149 150 154 98 176 186 32 289 246 149 190 191 316 316 273 233 258 303 331 337 327 242 330 341 341 339 330 326 325 329 341 316 251 236 235 234 237 233 231 236 230 230 230 227 224 227 236 243 248 257 265
132 146 203 260 256 291 14 109 139 130 118 161 251 236 150 146 230 226 185 144 174 258 184 250 239 215 273 19 117 230 15 319 137 145 96 195 171 165 210 139 227 201 222 194 69 155 335 265 241 262 314 332 350 352 344 342 344 346 335 345 349 348 345 345 350 354 352 341 331 310 253 226 224 223 221 228 230 228 229 227 220 218 221 221 228 239 254
182 173 208 194 233 58 60 130 160 150 173 196 190 269 262 146 140 9 37 7 267 209 147 247 296 316 332 318 22 275 127 307 336 24 50 161 221 135 153 135 184 142 21 31 330 108 35 341 298 323 358 355 351 347 348 348 350 355 355 353 355 356 353 356 357 357 359 357 343 341 345 265 222 218 216 221 224 225 223 221 217 208 204 210 216 230 236
234 299 289 352 50 103 137 148 202 234 239 211 193 215 186 90 139 32 132 273 250 318 182 277 233 222 271 176 275 264 136 174 148 126 334 308 115 261 150 175 218 140 71 29 124 145 176 190 310 20 350 326 337 342 349 354 358 355 359 356 1 3 1 1 4 4 6 7 3 2 359 359 332 244 241 236 220 216 220 224 212 204 202 204 217 223 225
348 301 319 318 287 121 131 194 211 238 212 228 39 311 108 300 122 227 230 29 6 38 271 213 306 69 87 284 286 298 276 127 99 198 210 230 183 219 184 157 190 81 32 232 243 15 355 1 335 15 339 336 345 351 357 360 2 359 359 3 7 9 8 8 6 5 9 12 10 9 8 6 2 6 352 303 242 200 200 215 223 211 205 205 208 214 219
274 219 226 274 211 199 196 260 195 184 44 345 10 341 3 50 358 339 16 280 327 333 270 135 192 79 29 334 340 250 332 21 251 193 217 207 98 228 185 168 270 45 214 220 102 309 7 10 8 354 332 343 349 355 358 3 360 3 1 6 10 12 13 12 10 9 12 14 13 11 12 13 10 9 12 2 342 288 228 208 213 219 216 207 201 206 209
200 181 210 206 210 230 142 321 274 26 357 347 358 352 352 2 16 346 345 328 80 289 261 282 227 212 11 234 216 96 170 245 210 15 269 228 167 245 99 48 37 134 152 80 76 35 346 43 13 345 338 336 355 0 359 3 5 5 8 5 9 15 15 15 16 17 14 13 14 11 16 14 12 15 22 19 22 36 351 316 293 260 265 246 200 172 134
267 232 256 355 344 261 63 329 294 25 359 13 352 10 3 11 347 349 0 292 176 274 273 265 270 341 151 198 55 267 206 283 92 233 288 159 103 63 357 35 356 51 39 2 43 331 50 354 345 353 347 343 344 359 2 2 9 14 8 7 9 16 20 23 22 22 20 18 14 13 17 15 17 21 25 23 26 48 55 46 31 330 188 137 126 115 111
253 297 297 54 321 302 139 169 268 344 43 20 13 6 350 25 13 14 9 342 312 315 300 267 257 229 157 173 164 204 209 157 179 267 290 261 76 63 103 163 355 14 19 54 11 5 344 322 346 341 337 338 340 354 2 6 5 15 20 19 8 14 23 30 29 28 25 23 19 20 20 19 18 20 24 25 25 37 45 46 50 55 59 58 58 77 75
297 302 298 262 34 275 241 36 330 43 2 18 53 13 1 11 32 26 6 328 328 325 312 298 222 298 352 154 58 342 299 306 42 17 301 34 40 88 64 31 25 4 351 3 22 340 318 346 339 344 338 346 350 350 3 7 6 13 29 27 18 13 21 32 34 33 26 22 22 23 24 24 19 19 25 26 26 36 37 39 45 48 52 54 54 67 80
294 262 217 47 244 299 360 15 344 65 48 23 22 17 2 1 18 10 2 337 315 316 330 332 348 79 99 260 206 63 34 350 29 54 341 360 67 41 28 53 41 53 60 348 339 309 320 350 4 345 347 3 355 349 356 5 8 13 17 26 27 19 16 24 35 38 36 31 25 21 20 22 26 26 25 24 32 36 35 34 41 44 43 52 60 54 70
63 66 72 304 346 26 349 354 356 27 29 33 27 18 353 15 18 4 355 327 318 324 323 357 7 312 20 336 5 40 45 356 8 50 345 22 26 14 348 56 336 336 64 33 308 28 19 3 7 7 11 6 356 347 349 3 3 8 11 20 38 34 17 21 26 34 38 43 42 35 29 25 28 31 28 27 35 34 32 36 43 45 36 41 57 58 57
141 25 303 7 336 39 336 349 7 2 18 28 16 10 340 18 16 11 350 326 328 323 338 60 48 10 12 341 356 1 67 5 27 12 36 45 22 8 13 20 35 335 343 318 324 44 52 26 23 17 13 4 355 344 344 5 2 358 2 24 24 46 43 29 30 30 31 37 46 54 48 38 35 35 35 37 38 36 36 38 39 41 40 33 45 54 56
302 152 135 109 10 13 347 16 1 353 0 17 11 9 335 32 12 355 344 329 345 349 20 9 3 16 7 18 346 336 62 51 62 54 29 23 16 11 12 340 345 332 300 324 343 339 51 63 35 21 3 1 351 340 339 5 1 354 354 27 31 15 44 57 44 38 35 32 36 45 54 54 47 44 39 33 41 47 46 42 41 39 40 42 41 43 49
298 332 342 188 151 88 72 120 66 353 352 29 22 354 346 36 360 359 328 356 352 14 15 6 14 351 11 28 11 341 349 28 52 27 39 63 25 23 325 312 321 344 347 348 0 359 18 42 40 33 14 359 348 334 337 359 357 354 350 0 42 33 16 29 61 56 49 43 40 43 48 48 47 40 40 43 42 47 47 48 45 44 43 42 44 45 48